Flag for Cyprus Weather past 2 weeks in Larnaca, Cyprus

Now
57 °F

Clear.


Feels Like: 57 °F
Forecast: 51 / 70 °F
Wind: 3 mph from Northwest

Location: Larnaca Airport

Current Time: Mar 29, 2015 at 11:38:24 PM

Latest Report: Mar 29, 2015 at 11:00 PM


Visibility: 10 mi

Pressure: 29.83 "Hg

Humidity: 72%

Dew point: 48 °F

Location of LarnacaLocation

Historic Weather in Larnaca — Graph

°F

Larnaca temperature yesterday

Maximum temperature yesterday: 68 °F (at 12:00 AM)
Minimum temperature yesterday: 55 °F (at 10:00 PM)
Average temperature yesterday: 64 °F

Past Weeks' High & Low Weather Summary

 TemperatureHumidityPressure
High72 °F (Mar 16, 12:30 PM)100% (Mar 28, 9:00 PM)30.15 "Hg (Mar 28, 9:00 PM)
Low43 °F (Mar 20, 5:00 AM)28% (Mar 22, 3:30 PM)29.74 "Hg (Mar 28, 2:30 AM)
Average59 °F65%30.00 "Hg
* Reported Mar 14 9:00 PM — Mar 29 10:30 PM, Larnaca, Weather by CustomWeather, © 2015

Note: Actual official high and low records may vary slightly from our data, if they occured in-between our weather recording intervals... More about our weather records

Advertising

Larnaca weather history for previous 24 hours

 ConditionsComfort  
Time TempWeatherWind HumidityBarometerVisibility
10:30 PM
Sun, Mar 29
57 °FPassing clouds.2 mph72%29.83 "HgN/A
10:00 PM57 °FPassing clouds.3 mph72%29.86 "HgN/A
9:30 PM59 °FPassing clouds.5 mph72%29.83 "HgN/A
9:00 PM64 °FPassing clouds.8 mph68%29.83 "HgN/A
8:30 PM63 °FPassing clouds.No wind68%29.83 "HgN/A
8:00 PM64 °FScattered clouds.6 mph60%29.80 "HgN/A
7:30 PM64 °FPassing clouds.3 mph64%29.80 "HgN/A
7:00 PM64 °FPassing clouds.6 mph64%29.80 "HgN/A
6:30 PM66 °FPassing clouds.6 mph60%29.77 "HgN/A
6:00 PM70 °FPassing clouds.9 mph46%29.77 "HgN/A
5:30 PM70 °FPassing clouds.14 mph46%29.77 "HgN/A
5:00 PM70 °FPassing clouds.15 mph60%29.77 "HgN/A
4:30 PM68 °FPassing clouds.23 mph73%29.74 "HgN/A
4:00 PM70 °FPassing clouds.16 mph64%29.74 "HgN/A
3:30 PM70 °FPassing clouds.14 mph64%29.77 "HgN/A
3:00 PM70 °FPassing clouds.9 mph64%29.74 "HgN/A
2:30 PM70 °FPassing clouds.8 mph69%29.74 "HgN/A
2:00 PM70 °FPassing clouds.8 mph64%29.77 "HgN/A
1:30 PM70 °FPassing clouds.8 mph64%29.77 "HgN/A
1:00 PM70 °FPassing clouds.7 mph60%29.80 "HgN/A
12:30 PM70 °FPassing clouds.5 mph64%29.80 "HgN/A
12:00 PM68 °FPassing clouds.3 mph69%29.83 "HgN/A
11:30 AM68 °FPassing clouds.5 mph73%29.83 "HgN/A
11:00 AM68 °FPassing clouds.6 mph73%29.83 "Hg6 mi
10:30 AM66 °FPassing clouds.7 mph78%29.83 "Hg6 mi
10:00 AM66 °FPassing clouds.7 mph78%29.83 "Hg6 mi
9:30 AM64 °FPassing clouds.6 mph83%29.83 "Hg6 mi
9:00 AM64 °FPassing clouds.6 mph78%29.83 "Hg6 mi
8:30 AM61 °FPassing clouds.5 mph88%29.83 "Hg5 mi
8:00 AM59 °FPassing clouds.6 mph94%29.83 "Hg5 mi
7:30 AM55 °FPassing clouds.6 mph100%29.83 "Hg5 mi
7:00 AM54 °FPassing clouds.6 mph100%29.83 "Hg5 mi
6:30 AM54 °FPassing clouds.5 mph100%29.83 "Hg5 mi
6:00 AM55 °FPassing clouds.6 mph100%29.83 "Hg5 mi
5:30 AM55 °FPassing clouds.6 mph100%29.83 "Hg5 mi
5:00 AM55 °FPassing clouds.6 mph100%29.83 "Hg4 mi
4:30 AM54 °FPassing clouds.5 mph100%29.83 "Hg4 mi
4:00 AM54 °FPassing clouds.3 mph100%29.83 "Hg5 mi
2:30 AM54 °FPassing clouds.6 mph100%29.83 "Hg5 mi
2:00 AM54 °FClear.6 mph100%29.83 "Hg10 mi
1:30 AM54 °FPassing clouds.7 mph100%29.86 "HgN/A
1:00 AM54 °FPassing clouds.5 mph100%29.86 "HgN/A
12:30 AM54 °FPassing clouds.3 mph100%29.86 "HgN/A
12:00 AM55 °FPassing clouds.6 mph94%29.86 "Hg6 mi
11:30 PM
Sat, Mar 28
55 °FClear.5 mph100%29.86 "Hg6 mi
11:00 PM55 °FClear.3 mph100%29.89 "Hg5 mi
Weather by CustomWeather, © 2015

See weather overviewHow to use our weather pages